Regional Weather Roundup
Issued by NWS

Home | Current Version | Previous Version | Graphics & Text | Print | Product List | Glossary On
Versions: 1 2 3 4 5 6 7 8 9 10 11 12 13 14 15 16 17 18 19 20 21 22 23 24 25 26 27
000
ASUS45 KCYS 221710
RWRWY

WYOMING REGIONAL WEATHER ROUNDUP
NATIONAL WEATHER SERVICE CHEYENNE WY
1100 AM MDT THU JUN 22 2017

NOTE:  "FAIR" INDICATES FEW OR NO CLOUDS BELOW 12,000 FEET
WITH NO SIGNIFICANT WEATHER AND/OR OBSTRUCTIONS TO VISIBILITY.

WYZ001-221800-
YELLOWSTONE NATIONAL PARK

CITY           SKY/WX    TMP DP  RH WIND       PRES   REMARKS
LK YELLOWSTONE   N/A     54  32  43 VRB6      30.21F
W YELLOWSTONE  NOT AVBL

$$
WYZ002>013-054>058-071-098>099-221800-
NORTHERN WYOMING

CITY           SKY/WX    TMP DP  RH WIND       PRES   REMARKS
JACKSON        SUNNY     64  34  32 CALM      30.13F
CODY           FAIR      63  34  33 NE9       30.07F
GREYBULL       FAIR      73  29  19 NW16G24   29.99F
WORLAND        FAIR      71  30  21 NW12G17   30.01F
SHERIDAN       FAIR      69  37  30 CALM      30.01F
BUFFALO        FAIR      63  36  36 NW6       30.05F
GILLETTE       FAIR      66  38  35 NE10      30.02S
NEWCASTLE      FAIR      68  41  37 N16G23    29.98S

$$
WYZ014>020-022>026-101>103-221800-
CENTRAL WYOMING

CITY           SKY/WX    TMP DP  RH WIND       PRES   REMARKS
BIG PINEY      FAIR      72  35  25 N12       30.14R
PINEDALE       FAIR      68  34  28 NW18      30.14S
DUBOIS         FAIR      66  25  20 N16G26    30.10F
LANDER         FAIR      68  33  27 E7        30.07F
RIVERTON       FAIR      68  30  24 VRB5      30.06S
CASPER         FAIR      64  36  35 MISG      30.07F
DOUGLAS        FAIR      68  39  34 N12       30.05S

$$
WYZ021-027>030-104>119-221800-
SOUTHERN WYOMING

CITY           SKY/WX    TMP DP  RH WIND       PRES   REMARKS
EVANSTON       FAIR      72  35  25 SW8G17    30.17S
KEMMERER         N/A     66  32  28 W15G22    30.18R
FORT BRIDGER   FAIR      74  31  20 NW12G21   30.18S
ROCK SPRINGS   FAIR      72  30  21 SW12      30.10F
DIXON          FAIR      78  35  21 W6        30.10S
RAWLINS        FAIR      74  41  30 VRB5      30.08F
SARATOGA       FAIR      75  39  27 N14       30.10R
LARAMIE        FAIR      73  42  32 N8G18     30.08S
CHEYENNE       FAIR      70  43  37 N23G35    30.03R
TORRINGTON     FAIR      78  30  17 N16G31    29.93R
PINE BLUFFS    FAIR      73  46  38 N23G31    29.98R

$$




USA.gov is the U.S. government's official web portal to all federal, state and local government web resources and services.